This is the latest recevied weather packets stored in our database for station/object KF4LQQ-13. If no packets are shown the sender has not sent any weather packets the latest 10 day(s).
| Time | Temp. | Humidity | Pressure | Rain* | Wind** | Luminosity | Snow |
|---|---|---|---|---|---|---|---|
| 1777849268 | 25.56° C | - | 1012.7 hPa | 1.52 mm | - | - | - |
| 1777848873 | 25.56° C | - | 1012.7 hPa | 1.52 mm | - | - | - |
| 1777848270 | 25.56° C | - | 1012.6 hPa | 1.52 mm | - | - | - |
| 1777847670 | 26.11° C | - | 1012.5 hPa | 1.52 mm | - | - | - |
| 1777847262 | 26.11° C | - | 1012.6 hPa | 1.52 mm | - | - | - |
| 1777847070 | 26.11° C | - | 1012.6 hPa | 1.52 mm | - | - | - |
| 1777846469 | 26.11° C | - | 1012.6 hPa | 1.52 mm | - | - | - |
| 1777845869 | 26.11° C | - | 1012.6 hPa | 1.52 mm | - | - | - |
| 1777845269 | 26.67° C | - | 1012.5 hPa | 1.52 mm | - | - | - |
| 1777844669 | 26.11° C | - | 1012.5 hPa | 1.52 mm | - | - | - |
| 1777844068 | 26.11° C | - | 1012.5 hPa | 1.52 mm | - | - | - |
| 1777843468 | 26.67° C | - | 1012.6 hPa | 1.52 mm | - | - | - |
| 1777843009 | 26.67° C | - | 1012.8 hPa | 1.52 mm | - | - | - |
| 1777842868 | 26.67° C | - | 1012.7 hPa | 1.52 mm | - | - | - |
| 1777842268 | 26.67° C | - | 1012.8 hPa | 1.52 mm | - | - | - |
| 1777841667 | 26.67° C | - | 1012.8 hPa | 1.52 mm | - | - | - |
| 1777841067 | 26.67° C | - | 1013 hPa | 1.52 mm | - | - | - |
| 1777840467 | 26.11° C | - | 1013.2 hPa | 1.52 mm | - | - | - |
| 1777839867 | 26.11° C | - | 1013.3 hPa | 1.52 mm | - | - | - |
| 1777839266 | 26.11° C | - | 1013.4 hPa | 1.52 mm | - | - | - |
| 1777838666 | 26.11° C | - | 1013.5 hPa | 1.52 mm | - | - | - |
| 1777838066 | 26.11° C | - | 1013.6 hPa | 1.52 mm | - | - | - |
| 1777837466 | 25.56° C | - | 1013.6 hPa | 1.52 mm | - | - | - |
| 1777836865 | 25° C | - | 1013.6 hPa | 1.52 mm | - | - | - |
| 1777836265 | 24.44° C | - | 1013.8 hPa | 1.52 mm | - | - | - |
* Rain since midnight (hover to see other rain measurements)
** Current wind speed in m/s (hover to see current wind gust speed)